[Iaude] MPEC B105: 2017 BF29 [a=1.18,e=0.14,i=2.6,H=25.7]

mpec at si.edu mpec at si.edu
Sat Jan 28 20:29:22 EST 2017


M.P.E.C. 2017-B105                               Issued 2017 Jan. 29, 01:24 UT
 
     The Minor Planet Electronic Circulars contain information on unusual
         minor planets and routine data on comets.  They are published
    on behalf of Division F of the International Astronomical Union by the
          Minor Planet Center, Smithsonian Astrophysical Observatory,
                          Cambridge, MA 02138, U.S.A.

             Prepared using the Tamkin Foundation Computer Network

                              MPC at CFA.HARVARD.EDU
            URL http://www.minorplanetcenter.net/    ISSN 1523-6714


                                   2017 BF29
 
Observations:
     K17B29F* C2017 01 26.54035 11 17 53.293-00 41 48.99         21.4 wLEB105F51
     K17B29F  C2017 01 26.55232 11 17 55.190-00 42 45.37         21.4 wLEB105F51
     K17B29F  C2017 01 26.56428 11 17 57.084-00 43 41.72         21.4 wLEB105F51
     K17B29F  C2017 01 26.57629 11 17 58.989-00 44 38.68         21.5 wLEB105F51
     K17B29F _C2017 01 27.52214011 21 26.298-01 59 16.65         20.8 GUEB105568
     K17B29F _C2017 01 27.52312011 21 26.454-01 59 21.36         20.9 GUEB105568
     K17B29F _C2017 01 27.52411111 21 26.609-01 59 26.06         20.8 GUEB105568
     K17B29F KC2017 01 28.01147 11 23 17.23 -02 38 29.3          20.3 GUEB105J04
     K17B29F KC2017 01 28.01931 11 23 18.65 -02 39 06.7          20.5 GUEB105J04
     K17B29F  C2017 01 28.50237 11 24 51.54 -03 17 52.0          20.9 RoEB105926
     K17B29F  C2017 01 28.50781 11 24 52.42 -03 18 16.9          20.9 RoEB105926
     K17B29F  C2017 01 28.51325 11 24 53.34 -03 18 43.4          21.2 RoEB105926
 
Observer details:
568 Mauna Kea.  Observers R. J. Wainscoat, D. Woodworth.  Measurers M. Micheli,
    R. J. Wainscoat.  3.6-m Canada-France-Hawaii Telescope + CCD.
926 Tenagra II Observatory.  Observers M. Schwartz, P. R. Holvorcem.  Measurer
    M. Schwartz.  0.81-m f/7 Ritchey-Chretien + CCD.
F51 Pan-STARRS 1, Haleakala.  Observers B. Gibson, T. Goggia, S. Kahale,
    T. Lowe, A. Schultz, M. Willman.  Measurers K. Chambers, S. Chastel,
    L. Denneau, H. Flewelling, M. Huber, E. Lilly, E. Magnier, R. Wainscoat,
    C. Waters, R. Weryk.  1.8-m Ritchey-Chretien + CCD.
J04 ESA Optical Ground Station, Tenerife.  Observer D. Abreu.  Measurers
    A. Knoefel, D. Koschny, M. Busch, M. Micheli, E. Schwab.  1.0-m f/4.4
    reflector + CCD.
 
Orbital elements:
2017 BF29                                                Earth MOID = 0.0389 AU
Epoch 2017 Feb. 16.0 TT = JDT 2457800.5                 MPC
M   2.61421              (2000.0)            P               Q
n   0.76677552     Peri.  203.35186     -0.82951970     -0.55714963
a   1.1821989      Node   302.73341     +0.51933689     -0.74420354
e   0.1351593      Incl.    2.62245     +0.20539296     -0.36843638
P   1.29           H   25.7           G   0.15           U   7
Residuals in seconds of arc
170126 F51  0.0   0.1+    170127 568  0.2+  0.1-    170128 J04  0.0   0.1+
170126 F51  0.1+  0.1+    170127 568  0.2+  0.2-    170128 926  0.3+  0.6-
170126 F51  0.1+  0.0     170127 568  0.2+  0.1-    170128 926  0.1-  0.5+
170126 F51  0.2+  0.4-    170128 J04  0.3+  0.3-    170128 926  0.1+  0.0

Ephemeris:
2017 BF29                a,e,i = 1.18, 0.14, 3                   q = 1.0224
Date    TT    R. A. (2000) Decl.     Delta      r     Elong.  Phase     V
2016 12 30    09 39 28.4 +24 54 00   0.09713 1.0581   138.5    38.0    22.3
...
2017 01 14    10 32 13.3 +13 49 04   0.07158 1.0386   139.0    38.4    21.6
...
2017 01 22    11 01 23.5 +05 03 08   0.06267 1.0312   137.3    40.3    21.3
...
2017 01 28    11 23 07.2 -02 36 16   0.05830 1.0270   135.1    42.6    21.2
2017 01 29    11 26 41.9 -03 56 15   0.05776 1.0264   134.7    43.0    21.2
2017 01 30    11 30 15.7 -05 16 49   0.05729 1.0259   134.3    43.5    21.2
...
2017 02 05    11 51 15.4 -13 22 06   0.05556 1.0235   131.4    46.3    21.2
...
2017 02 13    12 17 51.9 -23 28 25   0.05588 1.0224   127.7    49.9    21.3
...
2017 02 28    12 58 47.1 -37 29 24   0.06173 1.0269   124.6    52.6    21.6

A. U. Tomatic                (C) Copyright 2017 MPC           M.P.E.C. 2017-B105




More information about the Iaude mailing list